This is the latest recevied weather packets stored in our database for station/object M0HPP-13. If no packets are shown the sender has not sent any weather packets the latest 10 day(s).
| Time | Temp. | Humidity | Pressure | Rain* | Wind** | Luminosity | Snow |
|---|---|---|---|---|---|---|---|
| 1787989686 | 12.78° C | 97% | 1002.7 hPa | 0 mm | - | 45 W/m² | - |
| 1787989086 | 12.78° C | 97% | 1002.8 hPa | 0 mm | - | 48 W/m² | - |
| 1787988486 | 12.78° C | 96% | 1002.7 hPa | 0 mm | - | 25 W/m² | - |
| 1787987886 | 12.78° C | 95% | 1002.6 hPa | 0 mm | - | 17 W/m² | - |
| 1787987286 | 12.78° C | 96% | 1002.6 hPa | 0 mm | - | 16 W/m² | - |
| 1787986686 | 12.78° C | 96% | 1002.5 hPa | 0 mm | - | 23 W/m² | - |
| 1787986086 | 12.78° C | 97% | 1002.4 hPa | 0 mm | - | 26 W/m² | - |
| 1787985486 | 12.78° C | 97% | 1002.5 hPa | 0 mm | - | 18 W/m² | - |
| 1787984886 | 12.78° C | 96% | 1002.6 hPa | 0 mm | - | 8 W/m² | - |
| 1787984286 | 12.78° C | 96% | 1002.4 hPa | 0 mm | - | 12 W/m² | - |
| 1787983686 | 12.78° C | 96% | 1002.3 hPa | 0 mm | - | 9 W/m² | - |
| 1787983086 | 12.78° C | 96% | 1002.3 hPa | 0 mm | - | 7 W/m² | - |
| 1787982486 | 12.22° C | 97% | 1002.2 hPa | 0 mm | - | 3 W/m² | - |
| 1787981886 | 12.22° C | 98% | 1002.1 hPa | 0 mm | - | 3 W/m² | - |
| 1787981286 | 12.22° C | 99% | 1002.1 hPa | 0 mm | - | 2 W/m² | - |
| 1787980686 | 12.22° C | 99% | 1002.3 hPa | 0 mm | - | 1 W/m² | - |
| 1787980086 | 12.22° C | 98% | 1002.4 hPa | 0 mm | - | 0 W/m² | - |
| 1787979486 | 12.78° C | 98% | 1002.4 hPa | 0 mm | - | 0 W/m² | - |
| 1787978886 | 12.22° C | 98% | 1002.3 hPa | 0 mm | - | 0 W/m² | - |
| 1787978286 | 12.22° C | 99% | 1002.2 hPa | 0 mm | - | 0 W/m² | - |
| 1787977686 | 12.22° C | 99% | 1002.1 hPa | 0 mm | - | 0 W/m² | - |
| 1787977086 | 12.78° C | 99% | 1002 hPa | 0 mm | - | 0 W/m² | - |
| 1787976486 | 12.78° C | 98% | 1002 hPa | 0 mm | - | 0 W/m² | - |
| 1787975886 | 12.78° C | 97% | 1002 hPa | 0 mm | - | 0 W/m² | - |
| 1787975286 | 12.78° C | 97% | 1002 hPa | 0 mm | - | 0 W/m² | - |
* Rain latest hour (hover to see other rain measurements)
** Current wind speed in m/s (hover to see current wind gust speed)